Location: High Meadows Obseravatory
(40.7417°N, 111.5713°W)
Time: 18:41:45
(UTC-06:00)

N. Korean satellite - Visible Passes

Search period start: 08 August 2022 00:00
Search period end: 18 August 2022 00:00
Orbit: 433 x 471 km, 97.3° (Epoch: 08 August)

Date Brightness Start Highest point End Pass type
(mag) Time Alt. Az. Time Alt. Az. Time Alt. Az.
08 Aug 9.5 05:44:49 10° ENE 05:46:49 14° E 05:48:49 10° SE visible
11 Aug 9.9 05:35:34 10° ENE 05:36:22 11° E 05:37:10 10° ESE visible
13 Aug 9.3 05:57:38 10° NE 06:00:22 21° E 06:03:05 10° SE visible
16 Aug 9.5 05:47:16 10° NE 05:49:26 15° E 05:51:35 10° SE visible
